Terminal Aerodrome Forecast
Issued by NWS

Home | Current Version | Previous Version | Text Only | Print | Product List | Glossary On
Versions: 1 2 3 4 5 6 7 8 9 10 11 12 13 14 15 16 17 18 19 20 21 22 23 24 25 26 27 28 29 30 31 32 33 34 35 36 37 38 39 40 41 42 43 44 45 46 47 48 49 50
000
FTUS41 KCTP 212142 AAC
TAFBFD
TAF AMD
KBFD 212142Z 2122/2218 33006KT P6SM -SHRA BKN015 OVC035
     FM212300 34007KT 4SM -SHRA BR OVC012
     FM220500 34010KT 2SM -SHRA BR BKN004 OVC009
     FM221000 35010KT 4SM -DZ BR OVC004=

USA.gov is the U.S. government's official web portal to all federal, state and local government web resources and services.